Location: Aalen
(48.8330°N, 10.1000°E)
Time: 17:40:00
(UTC+02:00)

Transit 4A - Pass Details

Date: 09 August 2021
Orbit: 871 x 974 km, 66.8° (Epoch: 16 September)

Event Time Altitude Azimuth Distance (km) Brightness Sun altitude
Rises 03:35:41 0° 301° (WNW) 3,467 10.9 -19.2°
Reaches altitude 10° 03:39:43 10° 328° (NNW) 2,529 10.5 -18.8°
Maximum altitude 03:42:25 13° 356° (N) 2,307 10.7 -18.5°
Drops below altitude 10° 03:45:07 10° 24° (NNE) 2,538 11.4 -18.3°
Sets 03:49:11 0° 51° (NE) 3,490 12.4 -17.9°
